Home > Weather > Navi Mumbai > Past weeks

Flag for India Weather for the Past 2 Weeks in Navi Mumbai, Maharashtra, India

Now
70 °F

Haze.


Feels Like: 70 °F
Forecast: 64 / 91 °F
Wind: 3 mph from East

Location: Mumbai / Santacruz

Current Time: Feb 13, 2016 at 6:24:12 AM

Latest Report: Feb 13, 2016 at 5:30 AM


Visibility: 2 mi

Pressure: 29.92 "Hg

Humidity: 73%

Dew point: 61 °F

Location of Navi MumbaiLocation

Historic Weather in Navi Mumbai — Graph

°F

Navi Mumbai Temperature Yesterday

Maximum temperature yesterday: 81 °F (at 11:00 AM)
Minimum temperature yesterday: 70 °F (at 4:30 AM)
Average temperature yesterday: 76 °F

High & Low Weather Summary for the Past Weeks

 TemperatureHumidityPressure
High91 °F (Feb 2, 2:00 PM)88% (Feb 6, 4:30 AM)30.04 "Hg (Feb 6, 4:30 AM)
Low68 °F (Feb 8, 4:00 AM)25% (Feb 10, 2:30 PM)29.80 "Hg (Feb 6, 4:30 AM)
Average78 °F59%29.92 "Hg
* Reported Jan 29 5:00 AM — Feb 13 4:30 AM, Navi Mumbai, Weather by CustomWeather, © 2016

Note: Actual official high and low records may vary slightly from our data, if they occured in-between our weather recording intervals... More about our weather records

Advertising

Navi Mumbai Weather History for the Previous 24 Hours

 ConditionsComfort  
Time TempWeatherWind HumidityBarometerVisibility
4:30 AM
Sat, Feb 13
70 °FHaze.3 mph73%29.92 "Hg2 mi
3:30 AM70 °FHaze.3 mph73%29.92 "Hg2 mi
3:00 AM72 °FHaze.2 mph69%29.92 "Hg2 mi
2:30 AM72 °FHaze.2 mph69%29.92 "Hg2 mi
2:00 AM72 °FHaze.2 mph69%29.92 "Hg2 mi
1:30 AM72 °FHaze.No wind69%29.95 "Hg2 mi
1:00 AM73 °FHaze.2 mph65%29.95 "Hg2 mi
12:30 AM73 °FHaze.5 mph65%29.95 "Hg2 mi
12:00 AM73 °FHaze.3 mph69%29.95 "Hg2 mi
11:30 PM
Fri, Feb 12
73 °FHaze.6 mph65%29.95 "Hg2 mi
11:00 PM75 °FHaze.5 mph61%29.95 "Hg2 mi
10:30 PM75 °FHaze.6 mph61%29.95 "Hg2 mi
10:00 PM75 °FHaze.7 mph61%29.95 "Hg2 mi
9:30 PM75 °FHaze.6 mph65%29.95 "Hg2 mi
9:00 PM75 °FHaze.7 mph65%29.95 "Hg2 mi
8:30 PM75 °FHaze.9 mph65%29.95 "Hg2 mi
8:00 PM75 °FHaze.8 mph65%29.92 "Hg2 mi
7:30 PM77 °FHaze.9 mph61%29.92 "Hg2 mi
7:00 PM77 °FHaze.9 mph61%29.89 "Hg2 mi
6:30 PM77 °FClear.8 mph57%29.89 "Hg3 mi
6:00 PM77 °FClear.12 mph57%29.89 "Hg3 mi
5:30 PM79 °FClear.14 mph54%29.89 "Hg3 mi
5:00 PM79 °FClear.14 mph54%29.86 "Hg3 mi
4:30 PM81 °FPassing clouds.13 mph51%29.86 "Hg3 mi
4:00 PM81 °FPassing clouds.9 mph48%29.89 "Hg3 mi
3:30 PM81 °FPassing clouds.8 mph48%29.86 "Hg3 mi
3:00 PM81 °FPassing clouds.13 mph48%29.89 "Hg3 mi
2:30 PM81 °FPassing clouds.13 mph51%29.89 "Hg3 mi
2:00 PM81 °FPassing clouds.10 mph54%29.89 "Hg3 mi
1:30 PM81 °FPassing clouds.12 mph54%29.92 "Hg3 mi
1:00 PM81 °FPassing clouds.13 mph54%29.92 "Hg3 mi
12:30 PM81 °FPassing clouds.6 mph51%29.95 "Hg3 mi
12:00 PM81 °FPassing clouds.6 mph51%29.95 "Hg3 mi
11:30 AM79 °FScattered clouds.7 mph54%29.95 "Hg3 mi
11:00 AM81 °FScattered clouds.9 mph51%29.98 "Hg3 mi
10:30 AM77 °FScattered clouds.7 mph61%29.98 "Hg2 mi
10:00 AM77 °FScattered clouds.5 mph65%29.98 "Hg2 mi
9:30 AM75 °FHaze.7 mph69%29.98 "Hg2 mi
9:00 AM73 °FHaze.7 mph74%29.95 "Hg2 mi
8:30 AM72 °FHaze.8 mph78%29.95 "Hg1 mi
8:00 AM72 °FFog.3 mph78%29.92 "Hg1 mi
7:30 AM70 °FFog.5 mph83%29.92 "Hg1 mi
7:00 AM70 °FFog.3 mph83%29.92 "Hg1 mi
6:30 AM70 °FFog.3 mph83%29.92 "Hg1 mi
6:00 AM70 °FFog.5 mph83%29.89 "Hg1 mi
Weather by CustomWeather, © 2016

See weather overviewHow to use our weather pages